Simultaneous Nadir Overpasses (SNOs) Predictions

Prediction of SNOs between METOP-C and LANDSAT-8 Satellite Orbit:

Table of predicted SNOs for the next 14.0 days since TLE Epoch: 4/27/2019
Index Date (METOP-C) Time (METOP-C) Lat,Lon (METOP-C) SZA (METOP-C ) Date (LANDSAT-8) Time (LANDSAT-8) Lat,Lon (LANDSAT-8) SZA (LANDSAT-8 ) Distance(km) Time Diff (sec)
1 04/28/2019 20:41:46 -81.06, 87.90 111.17 04/28/2019 20:41:54 -81.07, 88.07 111.15 2.89 8
2 04/28/2019 21:32:25 81.09,-104.07 68.92 04/28/2019 21:31:19 81.09,-103.91 68.91 2.83 66
3 05/01/2019 15:25:30 81.05, -13.41 67.94 05/01/2019 15:26:42 81.04, -13.50 67.96 1.84 72
4 05/01/2019 16:16:09 -81.08, 154.64 111.98 05/01/2019 16:16:08 -81.07, 154.52 112.00 2.35 1
5 05/04/2019 10:59:54 81.04, 52.89 67.11 05/04/2019 11:00:56 81.04, 52.92 67.13 0.63 62
6 05/04/2019 11:50:33 -81.08,-138.99 112.80 05/04/2019 11:50:22 -81.07,-139.04 112.82 1.09 11
7 05/07/2019 06:34:16 81.06, 119.56 66.36 05/07/2019 06:35:08 81.06, 119.69 66.40 2.42 52
8 05/07/2019 07:24:55 -81.09, -72.25 113.55 05/07/2019 07:24:34 -81.09, -72.24 113.55 0.68 21
9 05/10/2019 02:08:39 81.07,-173.76 65.64 05/10/2019 02:09:22 81.06,-173.89 65.64 2.22 43




NCC Satellite Simultaneous Nadir Overpasses (SNOs) Prediction Service
